Regional Weather Roundup
Issued by NWS Green Bay, WI

Home | Current Version | Previous Version | Graphics & Text | Print | Product List | Glossary Off
Versions: 1 2 3 4 5 6 7 8 9 10 11 12 13 14 15 16 17 18 19 20 21 22 23 24 25 26 27 28 29 30 31 32 33 34 35 36 37 38 39 40 41 42 43 44 45 46 47 48 49 50

000
ASUS43 KGRB 271700
RWRGRB

NORTH-CENTRAL AND NORTHEAST WISCONSIN REGIONAL WEATHER ROUNDUP
NATIONAL WEATHER SERVICE GREEN BAY WI
1200 PM CDT TUE SEP 27 2016

WIZ005-009-010>012-018-019-271800-
NORTH CENTRAL WISCONSIN

CITY           SKY/WX    TMP DP  RH WIND       PRES   REMARKS
IRONWOOD       CLOUDY    50  47  89 NW15G25   29.63S
MANITOWISH WTR NOT AVBL
ARBOR VITAE    NOT AVBL
EAGLE RIVER    NOT AVBL
LAND O LAKES   NOT AVBL
RHINELANDER    LGT RAIN  50  48  93 W9        29.64S
PHILLIPS       NOT AVBL
ANTIGO         NOT AVBL
TOMAHAWK       NOT AVBL
MERRILL        NOT AVBL
$$

WIZ013-073-271800-
NORTHEAST WISCONSIN

CITY           SKY/WX    TMP DP  RH WIND       PRES   REMARKS
IRON MOUNTAIN  LGT RAIN  50  45  83 NW9G20    29.57S
MARINETTE      CLOUDY    56  46  69 W9G17     29.60R
$$

WIZ017-030-035>037-045-271800-
CENTRAL WISCONSIN

CITY           SKY/WX    TMP DP  RH WIND       PRES   REMARKS
MEDFORD        NOT AVBL
WAUSAU         CLOUDY    51  46  83 W12       29.67S
MOSINEE        NOT AVBL
MARSHFIELD     CLOUDY    53  43  68 W16G23    29.71S
WISC RAPIDS    CLOUDY    55  45  68 W8        29.73S
STEVENS POINT  NOT AVBL
WAUPACA        NOT AVBL
SHAWANO        NOT AVBL
CLINTONVILLE   NOT AVBL
WAUTOMA        CLOUDY    57  44  62 W16G23    29.72F
$$

WIZ038-039-048-051-271800-
FOX VALLEY

CITY           SKY/WX    TMP DP  RH WIND       PRES   REMARKS
NWS GREEN BAY  CLOUDY    58  47  66 W14       29.66R
APPLETON       CLOUDY    55  43  62 W17G26    29.67S
OSHKOSH        CLOUDY    56  43  61 W13G21    29.70S
FOND DU LAC    CLOUDY    57  44  62 W12G28    29.71S
$$

WIZ022-050-052-271800-
EAST CENTRAL WISCONSIN

CITY           SKY/WX    TMP DP  RH WIND       PRES   REMARKS
EPHRAIM        NOT AVBL
WASHINGTON ISL NOT AVBL
STURGEON BAY   CLOUDY    56  46  69 W17       29.61F
MANITOWOC      NOT AVBL
SHEBOYGAN      CLOUDY    58  44  60 W16G23    29.70R
$$

LMZ563-521-522-541>543-271800-
LAKESHORE

STATION/POSITION TIME  TEMP    WIND        PRES    VSBY  WAVE
                       AIR SEA DIR/SP/G                  HT/PER
                 (UTC) (F)     (DEG/KT/KT) (MB)    (MI)  (FT/S)
SHEBOYGAN LKSHOR 1600   55     270/ 14/ 16 1005.2F
KEWAUNEE LKSHORE 1600   56     270/ 15/ 22 1003.4F
NORTHPORT PIER   1600   57     270/  7/ 12 1002.0S
N MID LAKE BUOY  1550   57 66  260/ 21/ 25 1000.5R         5/ 5
CHAMBERS ISLAND  1600   56     230/ 11/ 18 1001.7F
MENOMINEE LKSHOR 1600   57     260/ 11/ 17 1001.5F
$$



USA.gov is the U.S. government's official web portal to all federal, state and local government web resources and services.